This demonstration page uses our WeatherBlox Daily Observations layout. Learn more.

Left ArrowRight Arrow

Hourly Observations for January 19, 2020

Temp ( °F °C ) Dew Point ( °F °C ) Humidity (%) Winds ( mph kmh ) Pressure ( in mb ) Visibility ( mi km ) Precip ( " mm )
12:15 am 00:15 Cloudy 19 -7 14 -10 79 79 WNW 29 46 30.12 1020 10 16.0934 N/A
12:35 am 00:35 Cloudy 19 -7 14 -10 79 79 W 21 33 30.12 1020 10 16.0934 N/A
12:56 am 00:56 Cloudy 19 -7 16 -9 86 86 W 24 39 30.12 1020 10 16.0934 N/A
1:16 am 01:16 Cloudy 19 -7 16 -9 86 86 W 24 39 30.12 1020 10 16.0934 N/A
1:36 am 01:36 Cloudy 18 -8 16 -9 93 93 WNW 23 37 30.12 1020 7 11.26538 N/A
1:55 am 01:55 Cloudy 18 -8 14 -10 86 86 W 25 41 30.14 1020 10 16.0934 N/A
2:15 am 02:15 Cloudy 18 -8 14 -10 86 86 W 21 33 30.15 1021 10 16.0934 N/A
2:35 am 02:35 Cloudy 16 -9 14 -10 93 93 W 22 35 30.16 1021 5 8.0467 N/A
2:56 am 02:56 Cloudy 16 -9 14 -10 93 93 W 23 37 30.17 1022 3 4.82802 N/A
3:16 am 03:16 Cloudy 14 -10 10 -12 85 85 W 28 44 30.18 1022 10 16.0934 N/A
3:35 am 03:35 Cloudy 14 -10 10 -12 85 85 WNW 21 33 30.18 1022 10 16.0934 N/A
3:55 am 03:55 Cloudy 14 -10 10 -12 85 85 WNW 24 39 30.19 1022 10 16.0934 N/A
4:16 am 04:16 Cloudy 14 -10 10 -12 85 85 W 22 35 30.2 1023 10 16.0934 N/A
4:36 am 04:36 Cloudy 14 -10 10 -12 85 85 W 18 30 30.2 1023 10 16.0934 N/A
4:56 am 04:56 Cloudy 12 -11 10 -12 92 92 W 20 31 30.22 1023 10 16.0934 N/A
5:16 am 05:16 Cloudy 12 -11 9 -13 85 85 WNW 20 31 30.22 1023 10 16.0934 N/A
5:35 am 05:35 Cloudy 12 -11 9 -13 85 85 WNW 18 30 30.23 1024 10 16.0934 N/A
5:55 am 05:55 Cloudy 12 -11 9 -13 85 85 WNW 16 26 30.23 1024 5 8.0467 N/A
6:16 am 06:16 Cloudy 10 -12 9 -13 92 92 W 20 31 30.25 1024 5 8.0467 N/A
6:36 am 06:36 Cloudy 10 -12 9 -13 92 92 W 18 30 30.25 1024 10 16.0934 N/A
6:55 am 06:55 Cloudy 10 -12 9 -13 92 92 WNW 16 26 30.27 1025 7 11.26538 N/A
7:15 am 07:15 Cloudy 10 -12 9 -13 92 92 WNW 22 35 30.28 1025 7 11.26538 N/A
7:35 am 07:35 Cloudy 10 -12 7 -14 85 85 W 15 24 30.28 1025 7 11.26538 N/A
7:55 am 07:55 Cloudy 10 -12 7 -14 85 85 WNW 17 28 30.29 1026 5 8.0467 N/A
8:16 am 08:16 Cloudy 10 -12 7 -14 85 85 WNW 14 22 30.3 1026 10 16.0934 N/A
8:36 am 08:36 Cloudy 10 -12 9 -13 92 92 W 16 26 30.3 1026 3 4.82802 N/A
8:56 am 08:56 Cloudy 10 -12 7 -14 85 85 WNW 17 28 30.32 1027 5 8.0467 N/A
9:15 am 09:15 Cloudy 10 -12 7 -14 85 85 WNW 16 26 30.32 1027 2.5 4.02335 N/A
9:35 am 09:35 Cloudy 9 -13 7 -14 92 92 W 21 33 30.34 1027 3 4.82802 N/A
9:56 am 09:56 Cloudy 10 -12 7 -14 85 85 W 18 30 30.33 1027 5 8.0467 N/A
10:15 am 10:15 Cloudy 9 -13 5 -15 85 85 W 21 33 30.35 1028 10 16.0934 N/A
10:36 am 10:36 Cloudy 10 -12 7 -14 85 85 WNW 14 22 30.35 1028 7 11.26538 N/A
10:55 am 10:55 Cloudy 10 -12 7 -14 85 85 W 20 31 30.36 1028 4 6.43736 N/A
11:15 am 11:15 Cloudy 10 -12 7 -14 85 85 WNW 15 24 30.36 1028 10 16.0934 N/A
11:35 am 11:35 Cloudy 10 -12 7 -14 85 85 WNW 16 26 30.36 1028 10 16.0934 N/A
11:55 am 11:55 Cloudy 10 -12 7 -14 85 85 W 18 30 30.37 1028 10 16.0934 N/A
12:16 pm 12:16 Cloudy 10 -12 7 -14 85 85 WNW 15 24 30.37 1028 10 16.0934 N/A
12:36 pm 12:36 Cloudy 10 -12 7 -14 85 85 WNW 15 24 30.38 1029 5 8.0467 N/A
12:55 pm 12:55 Cloudy 12 -11 9 -13 85 85 WNW 15 24 30.38 1029 7 11.26538 N/A
1:16 pm 13:16 Cloudy 12 -11 7 -14 79 79 WNW 16 26 30.38 1029 7 11.26538 N/A
1:35 pm 13:35 Cloudy 12 -11 7 -14 79 79 W 18 30 30.39 1029 10 16.0934 N/A
1:56 pm 13:56 Cloudy 12 -11 7 -14 79 79 WNW 16 26 30.39 1029 10 16.0934 N/A
2:16 pm 14:16 Cloudy 12 -11 9 -13 85 85 WNW 16 26 30.39 1029 10 16.0934 N/A
2:36 pm 14:36 Cloudy 12 -11 9 -13 85 85 W 17 28 30.39 1029 10 16.0934 N/A
2:56 pm 14:56 Cloudy 12 -11 9 -13 85 85 W 16 26 30.4 1029 10 16.0934 N/A
3:15 pm 15:15 Cloudy 12 -11 9 -13 85 85 WNW 18 30 30.4 1029 10 16.0934 N/A
3:35 pm 15:35 Cloudy 12 -11 9 -13 85 85 WNW 17 28 30.41 1030 10 16.0934 N/A
3:55 pm 15:55 Cloudy 12 -11 9 -13 85 85 WNW 13 20 30.42 1030 10 16.0934 N/A
4:15 pm 16:15 Cloudy 12 -11 9 -13 85 85 WNW 13 20 30.44 1031 10 16.0934 N/A
4:36 pm 16:36 Cloudy 12 -11 9 -13 85 85 WNW 14 22 30.45 1031 7 11.26538 N/A
4:56 pm 16:56 Cloudy 12 -11 9 -13 85 85 WNW 15 24 30.46 1031 7 11.26538 N/A
5:15 pm 17:15 Cloudy 12 -11 9 -13 85 85 WNW 14 22 30.46 1031 7 11.26538 N/A
5:35 pm 17:35 Cloudy 12 -11 10 -12 92 92 WNW 14 22 30.47 1032 5 8.0467 N/A
5:56 pm 17:56 Cloudy 12 -11 9 -13 85 85 WNW 16 26 30.48 1032 7 11.26538 N/A
6:15 pm 18:15 Cloudy 12 -11 9 -13 85 85 WNW 17 28 30.48 1032 10 16.0934 N/A
6:36 pm 18:36 Cloudy 12 -11 10 -12 92 92 W 16 26 30.49 1032 10 16.0934 N/A
6:55 pm 18:55 Cloudy 12 -11 10 -12 92 92 WNW 14 22 30.5 1033 7 11.26538 N/A
7:16 pm 19:16 Cloudy 12 -11 10 -12 92 92 WNW 13 20 30.5 1033 7 11.26538 N/A
7:36 pm 19:36 Cloudy 12 -11 10 -12 92 92 WNW 15 24 30.52 1033 10 16.0934 N/A
7:55 pm 19:55 Cloudy 12 -11 10 -12 92 92 W 12 19 30.52 1033 5 8.0467 N/A
8:16 pm 20:16 Cloudy 12 -11 10 -12 92 92 WNW 12 19 30.53 1034 7 11.26538 N/A
8:36 pm 20:36 Cloudy 12 -11 10 -12 92 92 W 13 20 30.52 1033 7 11.26538 N/A
8:56 pm 20:56 Cloudy 12 -11 10 -12 92 92 W 13 20 30.53 1034 10 16.0934 N/A
9:16 pm 21:16 Cloudy 12 -11 10 -12 92 92 WNW 12 19 30.53 1034 10 16.0934 N/A
9:36 pm 21:36 Cloudy 14 -10 10 -12 85 85 WNW 12 19 30.52 1034 10 16.0934 N/A
9:55 pm 21:55 Cloudy 14 -10 12 -11 92 92 WNW 10 17 30.52 1034 7 11.26538 N/A
10:16 pm 22:16 Cloudy 14 -10 12 -11 92 92 WNW 9 15 30.52 1034 7 11.26538 N/A
10:36 pm 22:36 Cloudy 14 -10 12 -11 92 92 WNW 9 15 30.52 1034 7 11.26538 N/A
10:55 pm 22:55 Cloudy 14 -10 12 -11 92 92 WNW 10 17 30.53 1034 4 6.43736 N/A
11:16 pm 23:16 Cloudy 14 -10 12 -11 92 92 WNW 9 15 30.53 1034 3 4.82802 N/A
11:35 pm 23:35 Cloudy 14 -10 14 -10 100 100 WNW 9 15 30.53 1034 3 4.82802 N/A
11:55 pm 23:55 Cloudy 14 -10 14 -10 100 100 WNW 10 17 30.54 1034 4 6.43736 N/A

Powered by AerisWeather